Flag for U.S.A. Weather past 2 weeks in Odessa, Texas, U.S.A.

Now
63 °F

Broken clouds.


Feels Like: 63 °F
Forecast: 49 / 67 °F
Wind: 21 mph from North

Location: Odessa-Schlemeyer Field

Current Time: Apr 27, 2015 at 2:16:05 PM

Latest Report: Apr 27, 2015 at 12:53 PM


Visibility: 10 mi

Pressure: 29.76 "Hg

Humidity: 47%

Dew point: 42 °F

Location of OdessaLocation

Historic Weather in Odessa — Graph

°F

Odessa temperature yesterday

Maximum temperature yesterday: 84 °F (at 2:53 PM)
Minimum temperature yesterday: 57 °F (at 2:53 AM)
Average temperature yesterday: 69 °F

Past Weeks' High & Low Weather Summary

 TemperatureHumidityPressure
High87 °F (Apr 22, 3:53 PM)93% (Apr 13, 5:53 AM)30.25 "Hg (Apr 13, 5:53 AM)
Low44 °F (Apr 20, 6:53 AM)8% (Apr 18, 3:53 PM)29.44 "Hg (Apr 26, 4:53 PM)
Average65 °F48%29.81 "Hg
* Reported Apr 12 12:53 PM — Apr 27 12:53 PM, Odessa, Weather by CustomWeather, © 2015

Note: Actual official high and low records may vary slightly from our data, if they occured in-between our weather recording intervals... More about our weather records

Advertising

Odessa weather history for previous 24 hours

 ConditionsComfort  
Time TempWeatherWind HumidityBarometerVisibility
12:53 PM
Mon, Apr 27
63 °FBroken clouds.21 mph47%29.76 "Hg10 mi
11:53 AM68 °FBroken clouds.12 mph42%29.75 "Hg10 mi
10:53 AM62 °FSunny.No wind52%29.75 "Hg10 mi
9:53 AM59 °FScattered clouds.9 mph62%29.75 "Hg10 mi
8:53 AM55 °FPartly sunny.13 mph72%29.73 "Hg10 mi
7:53 AM51 °FClear.8 mph59%29.72 "Hg10 mi
6:53 AM47 °FClear.3 mph69%29.68 "Hg10 mi
5:53 AM48 °FClear.8 mph63%29.67 "Hg10 mi
4:53 AM49 °FClear.7 mph59%29.66 "Hg10 mi
3:53 AM52 °FClear.6 mph53%29.66 "Hg10 mi
2:53 AM55 °FClear.3 mph44%29.66 "Hg10 mi
1:53 AM54 °FClear.No wind47%29.67 "Hg10 mi
12:53 AM58 °FClear.3 mph38%29.65 "Hg10 mi
11:53 PM
Sun, Apr 26
60 °FClear.6 mph33%29.65 "Hg10 mi
10:53 PM63 °FClear.10 mph28%29.63 "Hg10 mi
9:53 PM67 °FClear.16 mph22%29.59 "Hg10 mi
8:53 PM68 °FSunny.10 mph19%29.58 "Hg10 mi
7:53 PM69 °FSunny.17 mph19%29.57 "Hg10 mi
6:53 PM71 °FSunny.22 mph20%29.53 "Hg10 mi
5:53 PM76 °FSunny.29 mph16%29.52 "Hg10 mi
4:53 PM82 °FSunny.15 mph10%29.44 "Hg10 mi
3:53 PM84 °FScattered clouds.20 mph11%29.47 "Hg10 mi
2:53 PM84 °FSunny.14 mph11%29.50 "Hg10 mi
Weather by CustomWeather, © 2015

See weather overviewHow to use our weather pages